sat.trackr.live / text

‹ back to catalog

ARABSAT-5C

NORAD 37810 · 2011-049B

PAYLOAD ACTIVE UNKNOWN

§ Identity

Operator
Country
AB
Launch date
2011-09-21
Launch site
FRGUI
Launch vehicle
Mass (kg)
RCS (m²)
11.15

Purposes: comms

External: N2YO · Heavens-Above · Gunter

§ Orbital elements

Epoch: 2026-09-19T23:54:33.901344Z

Period
1,436.12 min
Inclination
0.0556°
Eccentricity
0.0003889
Mean motion
1.00270425 rev/d
Perigee alt
35,770.6 km
Apogee alt
35,803.4 km
Semi-major
42,165.1 km
B*
0.0000e+0
RAAN
1.5106°
Arg perigee
187.5510°
Mean anomaly
188.4849°
Rev number
5,498

§ Raw data

ARABSAT-5C1 37810U 11049B   26262.99622571  .00000119  00000+0  00000+0 0  99922 37810   0.0556   1.5106 0003889 187.5510 188.4849  1.00270425 54984

JSON: /api/v1/satellites/37810 · /tle

For live sub-satellite position, see the globe view (requires WebGL).

§ Visibility from observer

Set your observer location to see the next 7 days of passes ≥ 10°. The values pass through the URL so the page stays shareable.

No JS? Fill the form by hand. The geolocation button needs JavaScript.